DW0809 Weather Reports


Display with metric or nautical units.
time (UTC)temp
F
wind
direction
speed
MPH
gust
MPH
rain 1hr
in
rain 24hr
in
rain mn
in
humidity
%
barometer
mb
20260831063520 81 0.0 2.0 0.00 0.00 0.00 78 1011.5
20260831062543 81 248 2.0 4.0 0.00 0.00 0.00 76 1011.1
20260831061518 82 203 2.0 6.0 0.00 0.00 0.00 75 1011.0
20260831060518 82 180 2.0 4.0 0.00 0.00 0.00 76 1010.7
20260831055517 82 158 3.0 6.0 0.00 0.00 0.00 76 1010.7
20260831054557 82 158 2.0 5.0 0.00 0.00 0.00 77 1010.6
20260831053516 82 135 2.0 4.0 0.00 0.00 0.00 80 1010.6
20260831052517 82 158 1.0 2.0 0.00 0.00 0.00 83 1010.6
20260831051537 82 135 1.0 3.0 0.00 0.00 0.00 83 1010.5
20260831050517 82 0.0 2.0 0.00 0.00 0.00 83 1010.6
20260831045517 82 0.0 1.0 0.00 0.00 0.00 82 1010.7
20260831044517 83 158 1.0 2.0 0.00 0.00 0.00 82 1010.6
20260831043538 83 158 1.0 2.0 0.00 0.00 0.00 82 1010.6
20260831042517 83 0.0 1.0 0.00 0.00 0.00 80 1010.6
20260831041517 84 0.0 1.0 0.00 0.00 0.00 79 1010.6
20260831040517 84 0.0 1.0 0.00 0.00 0.00 78 1010.7
20260831035537 84 0.0 2.0 0.00 0.00 0.00 77 1010.9
20260831034517 84 0.0 1.0 0.00 0.00 0.00 77 1010.9
20260831033517 85 0.0 0.0 0.00 0.00 0.00 76 1010.9
20260831032537 85 0.0 0.0 0.00 0.00 0.00 76 1010.8
20260831031517 85 0.0 0.0 0.00 0.00 0.00 77 1010.9
20260831030517 85 0.0 0.0 0.00 0.00 0.00 77 1010.9
20260831025517 85 0.0 0.0 0.00 0.00 0.00 77 1010.9
20260831024517 85 0.0 0.0 0.00 0.00 0.00 76 1010.9
20260831023517 85 0.0 0.0 0.00 0.00 0.00 75 1010.8
20260831022517 86 0.0 0.0 0.00 0.00 0.00 74 1010.7
20260831021517 86 0.0 0.0 0.00 0.00 0.00 73 1010.8
20260831020517 87 0.0 0.0 0.00 0.00 0.00 72 1010.8
20260831015517 87 0.0 0.0 0.00 0.00 0.00 71 1010.8
20260831014517 87 0.0 0.0 0.00 0.00 0.00 70 1010.5
20260831013537 88 0.0 0.0 0.00 0.00 0.00 68 1010.4
20260831012517 88 0.0 0.0 0.00 0.00 0.00 68 1010.4
20260831011517 89 0.0 0.0 0.00 0.00 0.00 67 1010.4
20260831010517 90 0.0 0.0 0.00 0.00 0.00 66 1010.2
20260831005517 91 0.0 0.0 0.00 0.00 0.00 64 1010.4
20260831004517 92 0.0 0.0 0.00 0.00 0.00 63 1010.5
20260831003517 92 0.0 0.0 0.00 0.00 0.00 61 1010.4
20260831002517 93 0.0 1.0 0.00 0.00 0.00 59 1010.5
20260831001517 93 0.0 0.0 0.00 0.00 0.00 59 1010.5
20260831000538 93 0.0 2.0 0.00 0.00 0.00 58 1010.4
20260830235517 93 248 1.0 2.0 0.00 0.00 0.00 58 1010.4
20260830234537 93 248 1.0 3.0 0.00 0.00 0.00 58 1010.5
20260830233537 94 248 2.0 4.0 0.00 0.00 0.00 58 1010.5
20260830232517 94 203 1.0 2.0 0.00 0.00 0.00 58 1010.4
20260830231517 94 248 2.0 3.0 0.00 0.00 0.00 59 1010.4
20260830230517 93 203 1.0 3.0 0.00 0.00 0.00 58 1010.3
20260830225537 94 248 2.0 6.0 0.00 0.00 0.00 59 1010.3
20260830224516 93 248 2.0 4.0 0.00 0.00 0.00 62 1010.3
20260830223517 93 203 2.0 6.0 0.00 0.00 0.00 60 1010.3
20260830222516 92 203 3.0 7.0 0.00 0.00 0.00 58 1010.3
20260830221516 92 158 2.0 4.0 0.00 0.00 0.00 61 1010.3
20260830220516 91 203 2.0 5.0 0.00 0.00 0.00 59 1010.3
20260830215516 91 203 2.0 4.0 0.00 0.00 0.00 61 1010.4
20260830214536 90 203 1.0 3.0 0.00 0.00 0.00 60 1010.0
20260830213516 90 203 2.0 3.0 0.00 0.00 0.00 58 1010.0
20260830212516 91 225 2.0 4.0 0.00 0.00 0.00 58 1010.0
20260830211536 91 248 2.0 6.0 0.00 0.00 0.00 57 1010.3
20260830210517 91 203 3.0 6.0 0.00 0.00 0.00 58 1010.5
20260830205537 90 203 2.0 5.0 0.00 0.00 0.00 61 1010.5
20260830204617 89 225 3.0 6.0 0.00 0.00 0.00 60 1010.8
20260830203557 89 203 4.0 8.0 0.00 0.00 0.00 59 1010.9
20260830202516 90 203 3.0 10.0 0.00 0.00 0.00 58 1010.6
20260830201516 91 158 3.0 7.0 0.00 0.00 0.00 56 1010.4
20260830200516 90 248 4.0 8.0 0.00 0.00 0.00 60 1010.6
20260830195517 90 225 2.0 5.0 0.00 0.00 0.00 63 1010.8
20260830194516 90 203 3.0 8.0 0.00 0.00 0.00 60 1011.1
20260830193516 89 203 3.0 7.0 0.00 0.00 0.00 62 1011.3
20260830192536 89 203 2.0 5.0 0.00 0.00 0.00 63 1011.2
20260830191516 88 203 2.0 4.0 0.00 0.00 0.00 65 1011.2
20260830190556 88 180 2.0 7.0 0.00 0.00 0.00 63 1011.0
20260830185536 88 203 2.0 5.0 0.00 0.00 0.00 61 1010.9
20260830184516 88 203 3.0 9.0 0.00 0.00 0.00 61 1011.0
20260830183516 88 203 2.0 4.0 0.00 0.00 0.00 62 1011.1
20260830182516 87 203 3.0 5.0 0.00 0.00 0.00 61 1011.1
20260830181516 87 203 3.0 7.0 0.00 0.00 0.00 61 1011.3
20260830180516 88 225 6.0 14.0 0.00 0.00 0.00 57 1011.5
20260830175517 88 225 7.0 12.0 0.00 0.00 0.00 59 1011.6
20260830174516 88 203 5.0 10.0 0.00 0.00 0.00 56 1011.6
20260830173536 88 225 5.0 10.0 0.00 0.00 0.00 57 1011.7
20260830172516 87 203 3.0 9.0 0.00 0.00 0.00 64 1011.8
20260830171516 87 158 3.0 7.0 0.00 0.00 0.00 63 1011.7
20260830170516 86 158 2.0 6.0 0.00 0.00 0.00 64 1011.7
20260830165516 86 158 3.0 8.0 0.00 0.00 0.00 63 1011.8
20260830164516 85 135 2.0 6.0 0.00 0.00 0.00 67 1011.9
20260830163536 84 158 4.0 10.0 0.00 0.00 0.00 67 1011.7
20260830162516 84 158 4.0 10.0 0.00 0.00 0.00 65 1011.8
20260830161516 83 158 3.0 7.0 0.00 0.00 0.00 67 1011.7
20260830160516 83 158 3.0 7.0 0.00 0.00 0.00 66 1011.7
20260830155516 83 158 3.0 9.0 0.00 0.00 0.00 67 1011.8
20260830154516 83 158 2.0 8.0 0.00 0.00 0.00 67 1011.8
20260830153516 83 158 3.0 6.0 0.00 0.00 0.00 67 1011.9
20260830152516 82 158 3.0 5.0 0.00 0.00 0.00 67 1011.8
20260830151536 81 158 2.0 4.0 0.00 0.00 0.00 70 1011.7
20260830150656 80 0.0 1.0 0.00 0.00 0.00 74 1011.6
20260830145516 80 0.0 1.0 0.00 0.00 0.00 75 1011.6
20260830144516 79 0.0 2.0 0.00 0.00 0.00 76 1011.5
20260830143516 79 113 1.0 2.0 0.00 0.00 0.00 78 1011.0
20260830142516 78 113 1.0 3.0 0.00 0.00 0.00 79 1011.1
20260830141516 78 0.0 1.0 0.00 0.00 0.00 79 1011.3
20260830140516 78 0.0 0.0 0.00 0.00 0.00 79 1011.3
20260830135516 77 0.0 3.0 0.00 0.00 0.00 77 1011.3
20260830134516 77 0.0 1.0 0.00 0.00 0.00 77 1011.3
20260830133516 77 0.0 2.0 0.00 0.00 0.00 77 1011.3
20260830132516 77 0.0 1.0 0.00 0.00 0.00 76 1011.5
20260830131516 77 158 1.0 3.0 0.00 0.00 0.00 76 1011.4
20260830130516 77 113 1.0 3.0 0.00 0.00 0.00 76 1011.4
20260830125516 78 158 2.0 4.0 0.00 0.00 0.00 75 1011.4
20260830124516 78 158 2.0 5.0 0.00 0.00 0.00 72 1011.5
20260830123515 79 158 2.0 6.0 0.00 0.00 0.00 68 1011.6
20260830122515 79 158 3.0 10.0 0.00 0.00 0.00 68 1011.7
20260830121516 79 158 3.0 6.0 0.00 0.00 0.00 69 1011.8
20260830120516 78 158 3.0 6.0 0.00 0.00 0.00 70 1011.7
20260830115516 78 158 3.0 9.0 0.00 0.00 0.00 70 1011.7
20260830114517 78 158 3.0 6.0 0.00 0.00 0.00 70 1011.8
20260830113516 78 158 4.0 7.0 0.00 0.00 0.00 71 1011.6
20260830112516 78 158 3.0 7.0 0.00 0.00 0.00 71 1011.7
20260830111516 79 158 3.0 6.0 0.00 0.00 0.00 70 1011.9
20260830110517 78 158 2.0 5.0 0.00 0.00 0.00 71 1012.0
20260830105517 78 158 3.0 6.0 0.00 0.00 0.00 71 1012.0
20260830104519 78 203 2.0 3.0 0.00 0.00 0.00 72 1012.2
20260830103537 78 0.0 1.0 0.00 0.00 0.00 73 1012.2
20260830102519 78 0.0 2.0 0.00 0.00 0.00 72 1012.1
20260830101518 79 0.0 2.0 0.00 0.00 0.00 71 1012.3
20260830100537 79 225 1.0 1.0 0.00 0.00 0.00 70 1012.2
20260830095517 79 248 2.0 4.0 0.00 0.00 0.00 70 1012.2
20260830094618 79 225 1.0 3.0 0.00 0.00 0.00 70 1011.8
20260830093517 79 180 2.0 5.0 0.00 0.00 0.00 71 1011.8
20260830092516 79 158 2.0 6.0 0.00 0.00 0.00 71 1011.7
20260830091515 79 158 2.0 5.0 0.00 0.00 0.00 71 1011.7
20260830090556 79 158 3.0 7.0 0.00 0.00 0.00 71 1011.6
20260830085518 79 158 3.0 6.0 0.00 0.00 0.00 71 1011.3
20260830084518 78 158 2.0 5.0 0.00 0.00 0.00 71 1011.4
20260830083518 78 158 3.0 6.0 0.00 0.00 0.00 71 1011.4
20260830082519 78 180 2.0 6.0 0.00 0.00 0.00 71 1011.4
20260830081518 79 158 3.0 7.0 0.00 0.00 0.00 71 1011.3
20260830080518 79 180 3.0 6.0 0.00 0.00 0.00 71 1011.3
20260830075518 79 158 4.0 11.0 0.00 0.00 0.00 71 1011.2
20260830074659 79 158 4.0 8.0 0.00 0.00 0.00 71 1011.2
20260830073520 79 180 3.0 7.0 0.00 0.00 0.00 71 1011.2
20260830072517 79 158 4.0 7.0 0.00 0.00 0.00 71 1011.2
20260830071518 79 158 4.0 10.0 0.00 0.00 0.00 71 1011.2
20260830070517 79 158 4.0 10.0 0.00 0.00 0.00 70 1011.3
20260830065537 79 158 3.0 7.0 0.00 0.00 0.00 71 1011.2
20260830064518 79 158 4.0 9.0 0.00 0.00 0.00 71 1011.3